STARLINK-30188 (57432 NORAD) Tracking and Keplerian Element Data

This shows tracking and keplerian element data for the satellite.

Feedback or suggestion? Click here.




ElementValue
Catalog57432
NameSTARLINK-30188
Epoch Orbit2716
Epoch Day12.84168801
Epoch Year2024
RAAN217.5518
Inclination43.0011
Eccentricity0.0001428
Argument of Perigee267.2131
Mean Anonmoly92.8548
Mean Motion15.02538963
Decay Rate9E-06
L11 57432U 23105C 24012.84168801 .00000900 00000+0 81707-4 0 9992
L22 57432 43.0011 217.5518 0001428 267.2131 92.8548 15.02538963 27162



Live tracking and technical data element details for STARLINK-30188 (NORAD 57432). STARLINK-30188 can be tracked NOW for your location showing map with azimuth and elevation plus other details from your city location.







IsCatalogInMostPopularTable: catalog: 57432, numindb: 4
Update: records affected: 1



GetName: 57432 STARLINK-30188

Hit Count: updated at: Thu, 22 Feb 2024 02:10:44 GMT